Location: Newark
(40.3500°N, 15.2333°E)
Time: 15:23:49
(UTC+00:00)

Altair - Pass Details

Date: 25 January 2020
Orbit: 1502 x 1682 km, 47.2° (Epoch: 25 February)

Event Time Altitude Azimuth Distance (km) Brightness Sun altitude
Rises 14:03:08 0° 299° (WNW) 4,935 10.3 18.5°
Reaches altitude 10° 14:06:23 10° 295° (WNW) 3,937 10.0 18.0°
Maximum altitude 14:16:11 58° 220° (SW) 1,872 8.9 16.7°
Drops below altitude 10° 14:25:39 10° 145° (SE) 3,811 9.7 15.4°
Sets 14:28:46 0° 141° (SE) 4,770 10.1 15.0°
